COSMOS 970 DEB, 65012

Orbit data source: Space-Track

COSMOS 970 DEB, 65012 is space debris in LEO originally from a launch on Wed, 21 Dec 1977 UTC launched from the Tyuratam Missile And Space Complex (TTMTR). Debris objects in space refer to the collection of defunct objects orbiting the Earth. Examples of debris include non-operational satellites, rocket bodies, and fragments generated from explosions, collisions, or faulty payload assembly.

Loading next visibility...
Identifier
65012, 1977-121DZ
Orbit
LEO
Country
Flag of CISCIS
Related business
Manufacturer
Unknown
Mission
Spacecraft
Bus & Motor
Unknown
Mass
Unknown
Launch date (UTC)
1977-12-21 (48 years ago)
Launch vehicle
Unknown
Launch site
Tyuratam Missile And Space Complex (TTMTR)
Object type
Payload
Rocket body
Debris
Shape & HBR
Unknown shape, 0.1 m
Radar Cross Section
Small (<0.1 m²)

Expand to show TLE details & history
Last TLE update: 2 days ago

TLE from 2 days ago
0 COSMOS 970 DEB
1 65012U 77121DZ  26170.05507482  .00000539  00000-0  41657-3 0  9992
2 65012  65.6302 283.0201 0139478 290.4460  68.1682 13.96565589639489
Epoch: 2026-06-19T01:19Z
TLE epoch observation values (Epoch: 2026-06-19T01:19:18.464Z)
Latitude
-0.00006°
Longitude
-4.09641°
Altitude
871.149 km
Speed
7.436 km/s
True Right ascension
18h 52m 04s
True Declination
0° 00' 00"
Sunlit
Object was in full shadow at epoch
Visualization orbit readout
Latitude
Unknown
Longitude
Unknown
Altitude
Unknown
Speed
Unknown
Apparent Right ascension
Unknown
Apparent Declination
Unknown
Sunlit
N/A
Visualization observer readout
Local Sidereal Time
07:13:24
Azimuth
Unknown
Elevation
Unknown
Doppler factor
Unknown
Orbital elements
Apogee altitude
1,005.811 km
Perigee altitude
802.664 km
Semi-major axis
7,282.374 km
Eccentricity
0.01395
Inclination
65.6302°
RAAN
283.0201°
Arg. of periapsis
290.446°
True anomaly
69.66138°
Mean anomaly
68.1682°
Eccentric anomaly
68.91384°
Mean motion
3.49248 °/min
Orbital period
103.08 mins
BSTAR
0.00041657
Loading maneuver chart data...
Computing Atmospheric mass density...
Loading historical data...
Loading historical data...
Loading historical data...
Loading historical data...
Loading historical data...
Loading historical data...
Loading historical data...

Documentation

Showing up to 5 results
|